Change the Weather History Date:

Sunday, March 17, 2013

  Actual Average Record
Temperature  
Mean Temperature 0 °F -  
Max Temperature 15 °F 11 °F 22 °F (1963)
Min Temperature -14 °F -21 °F -38 °F (2006)
Degree Days  
Heating Degree Days 64    
Moisture  
Dew Point -16 °F    
Average Humidity 42    
Maximum Humidity 92    
Minimum Humidity 20    
Precipitation  
Precipitation 0.00 in - - ()
Sea Level Pressure  
Sea Level Pressure 30.10 in    
Wind  
Wind Speed 2 mph (NE)    
Max Wind Speed 6 mph    
Max Gust Speed -    
Visibility 10 miles    
Events      
Averages and records for this station are not official NWS values.
T = Trace of Precipitation, MM = Missing Value Source: NWS Daily Summary

Daily Weather History Graph

Daily Weather History Graph

Search for Another Location

Airport or City:

Trip Planner

Search our weather history database for the weather conditions in past years. The results will help you decide how hot, cold, wet, or windy it might be!

Date:

Astronomy

Mar. 17, 2013 Rise Set
Actual Time 7:52 AM AKDT 7:50 PM AKDT
Civil Twilight 6:56 AM AKDT 8:46 PM AKDT
Nautical Twilight 5:48 AM AKDT 9:55 PM AKDT
Astronomical Twilight 4:26 AM AKDT 11:19 PM AKDT
Moon 8:05 AM AKDT (3/17) 4:09 AM AKDT (3/17)
Length of Visible Light 13h 49m
Length of Day
11h 57m
Waxing Crescent, 33% of the Moon is Illuminated
Mar 17
Waxing Crescent
Mar 19
First Quarter
Mar 27
Full
Apr 2
Last Quarter
Apr 10
New

Hourly Weather History & Observations

Time (AKDT) Temp. Windchill Dew Point Humidity Pressure Visibility Wind Dir Wind Speed Gust Speed Precip Events Conditions
12:16 AM -2.2 °F - -22.0 °F 39% 30.18 in 10.0 mi Calm Calm - N/A   Clear
12:36 AM -2.2 °F -10.4 °F -11.2 °F 66% 30.18 in 9.0 mi ENE 3.5 mph - N/A   Clear
12:56 AM -5.8 °F -18.4 °F - N/A% 30.18 in 10.0 mi NNE 5.8 mph - N/A   Clear
1:16 AM -5.8 °F -16.7 °F - N/A% 30.18 in 10.0 mi NE 4.6 mph - N/A   Clear
1:36 AM -5.8 °F -14.5 °F - N/A% 30.18 in 10.0 mi NNE 3.5 mph - N/A   Clear
1:56 AM -7.6 °F - - N/A% 30.18 in 10.0 mi Calm Calm - N/A   Clear
2:16 AM -7.6 °F -16.5 °F - N/A% 30.18 in 10.0 mi NNE 3.5 mph - N/A   Clear
2:36 AM -7.6 °F - -27.4 °F 38% 30.18 in 10.0 mi Calm Calm - N/A   Clear
2:56 AM -7.6 °F -18.8 °F -23.8 °F 45% 30.18 in 10.0 mi NE 4.6 mph - N/A   Clear
3:16 AM -7.6 °F -16.5 °F -23.8 °F 45% 30.18 in 10.0 mi NE 3.5 mph - N/A   Clear
3:36 AM -9.4 °F -22.7 °F -18.4 °F 65% 30.18 in 10.0 mi NE 5.8 mph - N/A   Clear
3:56 AM -9.4 °F -22.7 °F -13.0 °F 84% 30.18 in 10.0 mi NE 5.8 mph - N/A   Clear
4:16 AM -9.4 °F -22.7 °F - N/A% 30.18 in 10.0 mi NNE 5.8 mph - N/A   Clear
4:36 AM -5.8 °F -16.7 °F - N/A% 30.17 in 10.0 mi NNE 4.6 mph - N/A   Clear
4:56 AM -14.8 °F -24.8 °F - N/A% 30.17 in 10.0 mi NE 3.5 mph - N/A   Clear
5:16 AM -13.0 °F - - N/A% 30.16 in 10.0 mi Calm Calm - N/A   Clear
5:36 AM -9.4 °F -20.9 °F - N/A% 30.16 in 10.0 mi NNE 4.6 mph - N/A   Clear
5:56 AM -11.2 °F -23.0 °F - N/A% 30.16 in 10.0 mi NNE 4.6 mph - N/A   Clear
6:16 AM -14.8 °F -24.8 °F - N/A% 30.16 in 10.0 mi NNE 3.5 mph - N/A   Clear
6:36 AM -14.8 °F -27.2 °F -25.6 °F 58% 30.16 in 10.0 mi NNE 4.6 mph - N/A   Clear
6:56 AM -14.8 °F -29.1 °F -23.8 °F 64% 30.16 in 10.0 mi NE 5.8 mph - N/A   Clear
7:16 AM -13.0 °F -27.0 °F -25.6 °F 53% 30.16 in 10.0 mi NNE 5.8 mph - N/A   Clear
7:36 AM -9.4 °F -20.9 °F - N/A% 30.16 in 10.0 mi NNE 4.6 mph - N/A   Clear
7:56 AM -14.8 °F -24.8 °F - N/A% 30.15 in 10.0 mi NNE 3.5 mph - N/A   Mostly Cloudy
8:16 AM -13.0 °F - - N/A% 30.15 in 10.0 mi Calm Calm - N/A   Scattered Clouds
8:36 AM -14.8 °F - - N/A% 30.15 in 10.0 mi Calm Calm - N/A   Partly Cloudy
8:56 AM -11.2 °F - - N/A% 30.15 in 10.0 mi Calm Calm - N/A   Scattered Clouds
9:16 AM -14.8 °F -27.2 °F - N/A% 30.14 in 8.0 mi NNE 4.6 mph - N/A   Partly Cloudy
9:36 AM -14.8 °F - - N/A% 30.14 in 10.0 mi Calm Calm - N/A   Clear
10:16 AM -11.2 °F - -20.2 °F 64% 30.14 in 10.0 mi Calm Calm - N/A   Mostly Cloudy
10:36 AM -9.4 °F - -25.6 °F 45% 30.14 in 10.0 mi Calm Calm - N/A   Scattered Clouds
10:56 AM -7.6 °F - - N/A% 30.13 in 10.0 mi Calm Calm - N/A   Clear
11:16 AM -4.0 °F - - N/A% 30.13 in 10.0 mi Calm Calm - N/A   Clear
11:36 AM -4.0 °F - - N/A% 30.13 in 10.0 mi Calm Calm - N/A   Clear
11:56 AM -0.4 °F - -31.0 °F 22% 30.12 in 10.0 mi Calm Calm - N/A   Partly Cloudy
12:16 PM -0.4 °F - -27.4 °F 27% 30.12 in 10.0 mi Calm Calm - N/A   Clear
12:36 PM 1.4 °F -6.2 °F -20.2 °F 36% 30.12 in 10.0 mi NNE 3.5 mph - N/A   Clear
12:56 PM 3.2 °F -4.2 °F -14.8 °F 43% 30.12 in 10.0 mi ENE 3.5 mph - N/A   Clear
1:16 PM 6.8 °F - -11.2 °F 44% 30.12 in 10.0 mi Calm Calm - N/A   Clear
1:36 PM 8.6 °F - - N/A% 30.11 in 10.0 mi Calm Calm - N/A   Clear
1:56 PM 10.4 °F 4.0 °F -20.2 °F 24% 30.11 in 10.0 mi NNE 3.5 mph - N/A   Clear
2:16 PM 10.4 °F 2.2 °F -13.0 °F 34% 30.10 in 10.0 mi NNE 4.6 mph - N/A   Clear
2:36 PM 10.4 °F - -9.4 °F 41% 30.09 in 10.0 mi Calm Calm - N/A   Clear
2:56 PM 12.2 °F 6.1 °F -7.6 °F 41% 30.09 in 10.0 mi ENE 3.5 mph - N/A   Clear
3:16 PM 12.2 °F - -9.4 °F 38% 30.08 in 10.0 mi Calm Calm - N/A   Clear
3:36 PM 12.2 °F - -11.2 °F 34% 30.08 in 10.0 mi Calm Calm - N/A   Clear
3:56 PM 14.0 °F - -11.2 °F 32% 30.07 in 10.0 mi Calm Calm - N/A   Clear
4:16 PM 15.8 °F - -7.6 °F 35% 30.06 in 10.0 mi Calm Calm - N/A   Clear
4:36 PM 15.8 °F - -5.8 °F 38% 30.06 in 10.0 mi Calm Calm - N/A   Clear
4:56 PM 15.8 °F - -5.8 °F 38% 30.05 in 10.0 mi Calm Calm - N/A   Clear
5:16 PM 15.8 °F - -9.4 °F 32% 30.05 in 10.0 mi Calm Calm - N/A   Clear
5:36 PM 15.8 °F - -2.2 °F 45% 30.04 in 10.0 mi Calm Calm - N/A   Clear
5:56 PM 15.8 °F - -0.4 °F 49% 30.03 in 10.0 mi Calm Calm - N/A   Clear
6:16 PM 15.8 °F - -11.2 °F 30% 30.03 in 10.0 mi Calm Calm - N/A   Clear
6:36 PM 15.8 °F - -7.6 °F 35% 30.02 in 10.0 mi Calm Calm - N/A   Clear
6:56 PM 15.8 °F - 1.4 °F 53% 30.02 in 10.0 mi Calm Calm - N/A   Clear
7:16 PM 10.4 °F 2.2 °F -23.8 °F 20% 30.02 in 10.0 mi North 4.6 mph - N/A   Clear
7:36 PM 10.4 °F - -16.6 °F 29% 30.02 in 10.0 mi Calm Calm - N/A   Clear
7:56 PM 10.4 °F 4.0 °F -11.2 °F 37% 30.01 in 10.0 mi NNE 3.5 mph - N/A   Clear
8:16 PM 10.4 °F 0.8 °F -9.4 °F 41% 30.01 in 10.0 mi NE 5.8 mph - N/A   Clear
8:36 PM 6.8 °F -2.0 °F -14.8 °F 37% 30.00 in 10.0 mi NNE 4.6 mph - N/A   Clear
8:56 PM 5.0 °F -4.1 °F -14.8 °F 40% 30.00 in 10.0 mi NE 4.6 mph - N/A   Clear
9:16 PM 5.0 °F -4.1 °F -13.0 °F 43% 29.99 in 10.0 mi ENE 4.6 mph - N/A   Clear
9:36 PM 3.2 °F - -11.2 °F 51% 29.99 in 10.0 mi Calm Calm - N/A   Clear
9:56 PM 1.4 °F -6.2 °F -0.4 °F 92% 29.99 in 10.0 mi East 3.5 mph - N/A   Clear
10:16 PM 1.4 °F -6.2 °F -16.6 °F 43% 29.98 in 10.0 mi ENE 3.5 mph - N/A   Clear
10:36 PM 1.4 °F -8.3 °F -29.2 °F 23% 29.98 in 10.0 mi ENE 4.6 mph - N/A   Clear
10:56 PM -0.4 °F -8.3 °F -23.8 °F 32% 29.98 in 10.0 mi ENE 3.5 mph - N/A   Clear
11:16 PM -2.2 °F -10.4 °F -25.6 °F 32% 29.98 in 10.0 mi NE 3.5 mph - N/A   Clear
11:36 PM -2.2 °F - -27.4 °F 29% 29.97 in 10.0 mi Calm Calm - N/A   Clear
11:56 PM -4.0 °F - -23.8 °F 38% 29.96 in 10.0 mi Calm Calm - N/A   Clear